Location: Unspecified
(0.0000°N, 0.0000°E)
Time: 08:27:37
(UTC+00:00)

N. Korean satellite - Pass Details

Date: 14 January 2017
Orbit: 459 x 517 km, 97.2° (Epoch: 20 October)

Event Time Altitude Azimuth Distance (km) Brightness Sun altitude
Rises 19:21:20 0° 190° (S) 2,484 10.6 -16.8°
Reaches altitude 10° 19:23:40 10° 205° (SSW) 1,603 9.9 -17.3°
Maximum altitude 19:26:26 23° 259° (W) 1,018 9.1 -17.9°
Drops below altitude 10° 19:29:12 10° 313° (NW) 1,596 9.5 -18.6°
Sets 19:31:31 0° 328° (NNW) 2,470 10.3 -19.1°
